Date String (YYYY-MM-DD hh:mm:ss) UTC,Instrument flags,Ambient pressure (hPa),Sample flow (lpm),Bypass flow (lpm),Sample temperature (°C),Ambient temperature (°C),ASC tube jacket temperature (°C),LED temperature (°C),Box temperature (°C),Sample RH (%),Span deviation,Mass concentration (μg/m³),Mass concentration (μg/m³),Mass concentration (μg/m³)
DateTimeUTC,F1_M11,P_M11,Q1_M11,Q2_M11,T1_M11,T2_M11,T3_M11,T4_M11,T5_M11,U1_M11,ZSPAN_M11,X0_M11,X2_M11,X1_M11
2023-04-06 02:00:00,,0831.3,5.00,0.00,22.6,21.1,00.0,30.9,24.1,11.5,0002.6,0009.22,0005.37,0004.88
2023-04-06 02:01:00,,0831.3,4.99,0.00,22.6,21.1,00.0,30.9,24.1,11.5,0003.1,0009.32,0005.42,0004.92
2023-04-06 02:02:00,,0831.3,5.00,0.00,22.5,21.1,00.0,30.9,24.1,11.4,0003.1,0009.34,0005.50,0004.98
2023-04-06 02:03:00,,0831.3,5.01,0.00,22.5,21.1,00.0,30.9,24.1,11.4,0002.5,0009.45,0005.53,0005.02
2023-04-06 02:04:00,,0831.3,5.00,0.00,22.5,21.1,00.0,30.9,24.1,11.4,0000.0,0009.32,0005.54,0005.05
2023-04-06 02:05:00,,0831.3,5.00,0.00,22.5,21.1,00.0,30.9,24.1,11.3,0002.7,0009.40,0005.57,0005.10
2023-04-06 02:06:00,,0831.3,5.00,0.00,22.5,21.0,00.0,30.9,24.1,11.3,0003.0,0009.94,0005.65,0005.16
2023-04-06 02:07:00,,0831.3,5.00,0.00,22.5,21.0,00.0,30.9,24.1,11.5,0003.4,0010.26,0005.72,0005.20
2023-04-06 02:08:00,,0831.4,5.00,0.00,22.5,20.9,00.0,30.9,24.0,11.4,0003.5,0010.46,0005.77,0005.23
2023-04-06 02:09:00,,0831.3,4.99,0.00,22.5,20.9,00.0,30.9,24.0,11.4,0003.4,0010.79,0005.79,0005.25
2023-04-06 02:10:00,,0831.4,5.00,0.00,22.5,20.9,00.0,30.8,24.0,11.4,0002.9,0010.89,0005.80,0005.26
2023-04-06 02:11:00,,0831.5,5.01,0.00,22.5,21.3,00.0,30.8,24.3,11.5,0002.3,0010.51,0005.78,0005.28
2023-04-06 02:12:00,,0831.5,5.00,0.00,22.6,22.3,00.0,30.8,24.6,11.4,0000.9,0010.28,0005.76,0005.27
2023-04-06 02:13:00,,0831.5,4.99,0.00,22.8,23.1,00.0,30.8,24.8,11.2,0001.1,0010.35,0005.77,0005.28
2023-04-06 02:14:00,,0831.5,4.98,0.00,22.8,23.1,00.0,30.9,24.7,10.9,0001.0,0010.57,0005.74,0005.27
2023-04-06 02:15:00,,0831.6,5.01,0.00,22.8,22.8,00.0,30.9,24.6,10.8,0000.8,0010.83,0005.74,0005.28
2023-04-06 02:16:00,,0831.6,5.01,0.00,22.8,22.5,00.0,31.0,24.5,10.9,0000.9,0010.81,0005.76,0005.31
2023-04-06 02:17:00,,0831.6,5.00,0.00,22.8,22.2,00.0,31.0,24.4,10.9,0001.1,0010.87,0005.77,0005.32
2023-04-06 02:18:00,,0831.6,4.99,0.00,22.8,22.0,00.0,31.0,24.3,11.0,0000.5,0010.98,0005.77,0005.33
2023-04-06 02:19:00,,0831.6,5.00,0.00,22.8,21.7,00.0,31.0,24.3,11.1,-000.1,0011.31,0005.81,0005.36
2023-04-06 02:20:00,,0831.6,4.99,0.00,22.8,21.6,00.0,31.0,24.3,10.9,-000.3,0011.11,0005.78,0005.36
2023-04-06 02:21:00,,0831.7,5.01,0.00,22.8,21.4,00.0,31.0,24.2,10.7,0000.0,0010.84,0005.78,0005.38
2023-04-06 02:22:00,,0831.7,5.00,0.00,22.7,21.3,00.0,31.1,24.2,10.7,-000.1,0010.85,0005.79,0005.37
2023-04-06 02:23:00,,0832.0,4.99,0.00,22.7,21.2,00.0,31.0,24.2,11.3,-000.1,0011.03,0005.81,0005.38
2023-04-06 02:24:00,,0832.1,5.00,0.00,22.7,21.2,00.0,31.0,24.2,12.1,-000.9,0011.14,0005.81,0005.37
2023-04-06 02:25:00,,0832.1,5.01,0.00,22.7,21.2,00.0,31.0,24.2,12.3,-000.6,0010.79,0005.78,0005.38
2023-04-06 02:26:00,,0832.0,4.99,0.00,22.7,21.2,00.0,31.0,24.2,12.1,-000.2,0010.39,0005.79,0005.39
2023-04-06 02:27:00,,0831.8,4.99,0.00,22.7,21.2,00.0,31.0,24.2,12.2,0000.2,0010.42,0005.75,0005.37
2023-04-06 02:28:00,,0831.7,5.02,0.00,22.7,21.2,00.0,31.0,24.2,12.0,0000.4,0010.35,0005.71,0005.36
2023-04-06 02:29:00,,0831.8,5.00,0.00,22.7,21.2,00.0,31.0,24.2,11.8,0000.4,0009.70,0005.70,0005.36
2023-04-06 02:30:00,,0831.9,5.00,0.00,22.7,21.1,00.0,31.0,24.2,11.8,0000.8,0009.74,0005.71,0005.37
2023-04-06 02:31:00,,0831.9,5.00,0.00,22.6,21.1,00.0,31.0,24.2,11.8,0000.7,0009.43,0005.73,0005.39
2023-04-06 02:32:00,,0831.9,5.00,0.00,22.6,21.1,00.0,31.0,24.1,11.7,0000.7,0009.36,0005.73,0005.40
2023-04-06 02:33:00,,0832.0,5.00,0.00,22.6,21.0,00.0,31.0,24.1,11.6,0001.3,0009.35,0005.74,0005.41
2023-04-06 02:34:00,,0832.0,5.00,0.00,22.6,21.0,00.0,31.0,24.1,11.3,0001.0,0009.23,0005.73,0005.40
2023-04-06 02:35:00,,0832.0,5.00,0.00,22.6,20.9,00.0,31.0,24.1,11.0,0000.8,0008.92,0005.66,0005.38
2023-04-06 02:36:00,,0832.0,5.01,0.00,22.6,20.9,00.0,31.0,24.1,10.9,0000.5,0008.90,0005.66,0005.38
2023-04-06 02:37:00,,0832.0,5.01,0.00,22.6,20.9,00.0,31.0,24.1,10.9,0000.8,0009.17,0005.67,0005.37
2023-04-06 02:38:00,,0832.0,4.99,0.00,22.6,21.0,00.0,30.9,24.1,11.0,0000.1,0009.76,0005.68,0005.37
2023-04-06 02:39:00,,0832.0,4.99,0.00,22.6,21.2,00.0,30.9,24.3,11.0,-000.8,0009.46,0005.70,0005.38
2023-04-06 02:40:00,,0832.0,5.01,0.00,22.7,22.1,00.0,30.9,24.6,10.8,-000.7,0009.59,0005.71,0005.36
2023-04-06 02:41:00,,0832.1,5.02,0.00,22.8,23.0,00.0,30.9,24.9,10.8,-000.4,0009.24,0005.67,0005.34
2023-04-06 02:42:00,,0832.1,4.99,0.00,22.9,23.2,00.0,31.0,24.9,10.6,-001.2,0009.67,0005.64,0005.33
2023-04-06 02:43:00,,0832.1,5.00,0.00,22.9,23.0,00.0,31.0,24.7,10.4,-000.5,0010.16,0005.65,0005.32
2023-04-06 02:44:00,,0832.1,5.01,0.00,22.9,22.8,00.0,31.1,24.6,10.3,-001.1,0010.83,0005.63,0005.31
2023-04-06 02:45:00,,0832.0,5.00,0.00,22.9,22.5,00.0,31.1,24.6,10.3,-000.2,0010.93,0005.62,0005.31
2023-04-06 02:46:00,,0832.0,5.00,0.00,22.9,22.3,00.0,31.1,24.5,10.4,0000.7,0011.06,0005.65,0005.31
2023-04-06 02:47:00,,0832.1,5.00,0.00,22.9,22.1,00.0,31.2,24.5,10.4,0001.0,0011.16,0005.66,0005.31
2023-04-06 02:48:00,,0832.1,5.01,0.00,22.9,22.0,00.0,31.2,24.5,10.4,0000.3,0011.13,0005.67,0005.31
2023-04-06 02:49:00,,0832.1,5.00,0.00,22.9,21.8,00.0,31.2,24.5,10.3,0001.1,0010.39,0005.68,0005.31
2023-04-06 02:50:00,,0832.1,5.00,0.00,22.9,21.7,00.0,31.2,24.5,10.2,0002.0,0010.45,0005.69,0005.30
2023-04-06 02:51:00,,0832.2,5.00,0.00,22.9,21.6,00.0,31.2,24.4,10.3,0002.5,0010.46,0005.68,0005.30
2023-04-06 02:52:00,,0832.2,4.99,0.00,22.9,21.5,00.0,31.2,24.4,10.3,0002.7,0010.58,0005.68,0005.30
2023-04-06 02:53:00,,0832.2,5.00,0.00,22.9,21.5,00.0,31.2,24.4,10.1,0002.6,0010.26,0005.68,0005.28
2023-04-06 02:54:00,,0832.2,5.00,0.00,22.9,21.4,00.0,31.2,24.4,10.0,0001.7,0009.98,0005.66,0005.26
2023-04-06 02:55:00,,0832.2,5.01,0.00,22.8,21.4,00.0,31.2,24.4,09.8,0002.0,0009.61,0005.65,0005.23
2023-04-06 02:56:00,,0832.2,4.98,0.00,22.8,21.4,00.0,31.2,24.4,09.7,0002.2,0009.76,0005.61,0005.19
2023-04-06 02:57:00,,0832.2,5.01,0.00,22.8,21.3,00.0,31.2,24.4,10.0,0001.7,0009.98,0005.57,0005.17
2023-04-06 02:58:00,,0832.2,5.01,0.00,22.8,21.3,00.0,31.2,24.4,10.4,0001.6,0010.07,0005.53,0005.14
2023-04-06 02:59:00,,0832.2,4.98,0.00,22.8,21.3,00.0,31.2,24.4,10.1,0001.9,0009.93,0005.46,0005.10
